STARLINK-2067 (47674 NORAD) Tracking and Keplerian Element Data

This shows tracking and keplerian element data for the satellite.

Feedback or suggestion? Click here.




ElementValue
Catalog47674
NameSTARLINK-2067
Epoch Orbit177
Epoch Day101.91668981
Epoch Year2021
RAAN188.972
Inclination53.0474
Eccentricity0.0001886
Argument of Perigee37.6186
Mean Anonmoly14.6573
Mean Motion15.73221206
Decay Rate-7.94E-05
L11 47674U 21012BG 21101.91668981 -.00007940 00000-0 -52135-4 0 9999
L22 47674 53.0474 188.9720 0001886 37.6186 14.6573 15.73221206 1772

Live tracking and technical data element details for STARLINK-2067 (NORAD 47674). STARLINK-2067 can be tracked NOW for your location showing map with azimuth and elevation plus other details from your city location.

Track the satellite on the map from your city or location and see movement details for azimuth, elevation, latitude, longitude, range, height, and movement on the map or in text.







IsCatalogInMostPopularTable: catalog: 47674, numindb: 18
Update: records affected: 1



GetName: 47674 STARLINK-2067

Hit Count: updated at: Tue, 13 Apr 2021 03:53:02 GMT